Regional Weather Roundup
Issued by NWS

Home | Current Version | Previous Version | Text Only | Print | Product List | Glossary Off
Versions: 1 2 3 4 5 6 7 8 9 10 11 12 13 14 15 16 17 18 19 20 21 22 23 24 25 26 27 28 29 30 31 32 33 34 35 36 37 38 39 40 41 42 43 44 45 46 47 48 49 50

742
ASUS43 KLMK 261202
RWRKY
KENTUCKY REGIONAL WEATHER ROUNDUP
NATIONAL WEATHER SERVICE LOUISVILLE KY
800 AM EDT TUE JUL 26 2016

NOTE "FAIR" INDICATES FEW OR NO CLOUDS BELOW 12,000 FEET
WITH NO SIGNIFICANT WEATHER AND/OR OBSTRUCTIONS TO VISIBILITY.

KYZ001>023-026-027-061>063-070>075-261300-
WESTERN AND SOUTH CENTRAL KENTUCKY

CITY           SKY/WX    TMP DP  RH WIND       PRES   REMARKS
PADUCAH        SUNNY     76  73  91 S3        30.01R
HENDERSON      CLOUDY    75  72  88 S6        30.00R VSB 1/4
OWENSBORO      MOSUNNY   75  75 100 SE7       30.02S FOG
HOPKINSVILLE   SUNNY     74  73  97 CALM      30.03R
BOWLING GREEN  SUNNY     76  73  91 CALM      30.03S
GLASGOW        NOT AVBL
$$

KYZ024-025-028>034-038-045-046-053-261300-
NORTH CENTRAL KENTUCKY

CITY           SKY/WX    TMP DP  RH WIND       PRES   REMARKS
LOUISVILLE/SDF PTSUNNY   77  72  84 S3        30.03S
LOUISVILLE/LOU MOSUNNY   76  72  87 SE3       30.04S
FORT KNOX      CLOUDY    73  73 100 S1        30.03S
$$

KYZ035>037-039>044-047>052-055>060-089>105-261300-
NORTHEAST KENTUCKY

CITY           SKY/WX    TMP DP  RH WIND       PRES   REMARKS
LEXINGTON      SUNNY     73  72  96 CALM      30.06F FOG
COVINGTON      CLOUDY    79  70  74 NE6       30.05R
FRANKFORT      CLOUDY    75  71  87 CALM      30.04F
$$

KYZ054-064>069-076>088-106>120-261300-
SOUTHEAST KENTUCKY

CITY           SKY/WX    TMP DP  RH WIND       PRES   REMARKS
JACKSON        FOG       73  71  93 CALM      30.09S VSB 1/4
LONDON         SUNNY     72  68  87 CALM      30.08S
SOMERSET       FOG       70  70 100 CALM      30.08S VSB<1/4
MIDDLESBORO    CLOUDY    70  70 100 CALM      30.11S
MONTICELLO     SUNNY    N/A N/A N/A W8        30.09R
$$





USA.gov is the U.S. government's official web portal to all federal, state and local government web resources and services.